Location: Colebrook
(42.0017°N, 73.0973°W)
Time: 13:22:56
(UTC-04:00)

X-37B - Pass Details

Date: 28 September 2021
Orbit: 342 x 346 km, 45.0° (Epoch: 22 October)

Event Time Altitude Azimuth Distance (km) Brightness Sun altitude
Exits shadow 04:36:44 22° 59° (ENE) 808 2.9 -24.5°
Drops below altitude 10° 04:38:00 10° 68° (ENE) 1,295 4.3 -24.2°
Sets 04:40:03 0° 74° (ENE) 2,137 5.8 -23.9°
